Regional Weather Roundup
Issued by NWS Sterling, VA

Home | Current Version | Previous Version | Text Only | Print | Product List | Glossary Off
Versions: 1 2 3 4 5 6 7 8 9 10 11 12 13 14 15 16 17 18 19 20 21 22 23 24 25 26 27 28 29 30 31 32 33 34 35 36 37 38 39 40 41 42 43 44 45 46 47 48 49 50

000
ASUS41 KLWX 230511
RWRLWX

REGIONAL WEATHER ROUNDUP
NATIONAL WEATHER SERVICE BALTIMORE MD/WASHINGTON DC
100 AM EDT SAT SEP 23 2017

Note: "FAIR" indicates few or no clouds below 12,000 feet
with no significant weather and/or obstructions to visibility.
 TC=TEMPERATURE CELSIUS

 * =Non NWS site. Station does not report precipitation (e.g. rain,
    snow, etc.), thunder, or fog.

DCZ001-MDZ009-015-VAZ040>042-051-053>054-230600-
WASHINGTON METRO

CITY           SKY/WX    TMP DP  RH WIND       PRES   REMARKS
WASHINGTON NAT MOCLDY    70  65  84 N7        30.02S
DULLES         PTCLDY    63  63 100 NW3       30.04S
ANDREWS AFB    PTCLDY    64  60  88 N6        30.01S
FT BELVOIR     PTCLDY    65  64  96 CALM      30.02S
QUANTICO         N/A     68  66  93 NW7       30.03S
COLLEGE PARK*  CLOUDY    63  62  97 CALM      30.02S
LEESBURG*      PTCLDY    63  63 100 CALM      30.06R
MANASSAS*      FOG       61  61 100 CALM      30.04S VSB 3/4
GAITHERSBURG*  CLOUDY    61  60  97 CALM      30.05S

$$

MDZ006>007-011-014-230600-
BALTIMORE METRO

CITY           SKY/WX    TMP DP  RH WIND       PRES   REMARKS
BWI AIRPORT    CLOUDY    63  62  97 NW3       30.01S
MD SCIENCE CTR   N/A     75  56  51 MISG      30.02S
MARTIN STATE   PTCLDY    64  61  88 W3        30.02S
ANNAPOLIS      PTCLDY    73  69  87 N6        30.00S
FORT MEADE*    PTCLDY    59  59 100 CALM      30.04S

$$

MDZ012-015-019>023-230600-
MARYLAND EASTERN SHORE

CITY           SKY/WX    TMP DP  RH WIND       PRES   REMARKS
OCEAN CITY     CLEAR     66  63  90 NW7       29.98S
SALISBURY      CLEAR     65  64  97 NW3       29.98S
CAMBRIDGE*     CLEAR     70  66  88 NW6       29.99F
EASTON*        CLEAR     69  64  86 CALM      30.03S

$$

MDZ017>025-230600-
SOUTHERN MARYLAND

CITY           SKY/WX    TMP DP  RH WIND       PRES   REMARKS
PATUXENT RIVER CLEAR     67  65  93 W6        30.00S
ST INIGOES     CLEAR     63  62  97 CALM      30.00S
LEONARDTOWN*   CLEAR     63  61  94 CALM      30.03R

$$

MDZ003>005-230600-
NORTH CENTRAL MARYLAND

CITY           SKY/WX    TMP DP  RH WIND       PRES   REMARKS
FREDERICK*     FOG       61  61 100 CALM      30.08R VSB 1/4
HAGERSTOWN APT PTCLDY    64  59  83 NW6       30.07R
WESTMINSTER*   CLEAR     64  57  77 N5        30.06R

$$

MDZ501>502-230600-
WESTERN MARYLAND

CITY           SKY/WX    TMP DP  RH WIND       PRES   REMARKS
OAKLAND*       CLEAR     64  52  63 CALM      30.15F
CUMBERLAND*    PTCLDY    63  59  88 CALM      30.12S

$$

VAZ025>031-230600-
SHENANDOAH VALLEY

CITY           SKY/WX    TMP DP  RH WIND       PRES   REMARKS
WINCHESTER*    PTCLDY    61  59  94 CALM      30.07R
FRONT ROYAL*   PTCLDY    63  61  94 CALM      30.06R
LURAY*         PTCLDY    61  61 100 CALM      30.08R
NEW MARKET*    PTCLDY    60  58  93 CALM      30.08R
STAUNTON*      PTCLDY    62  60  96 CALM      30.11S
WAYNESBORO*    PTCLDY    64  63  96 CALM      30.10S

$$

WVZ021-048>050-054>055-230600-
EASTERN WEST VIRGINIA PANHANDLE

CITY           SKY/WX    TMP DP  RH WIND       PRES   REMARKS
MARTINSBURG    PTCLDY    59  57  93 CALM      30.05S
PETERSBURG*    CLOUDY    63  62  97 CALM      30.10S

$$

VAZ036>039-050-230600-
CENTRAL FOOTHILLS

CITY           SKY/WX    TMP DP  RH WIND       PRES   REMARKS
CHARLOTTESVILL PTCLDY    69  67  93 CALM      30.06R
CULPEPER*      FOG       62  62 100 CALM      30.05R VSB 1/2
ORANGE*        PTCLDY    63  63 100 CALM      30.05R
GORDONSVILLE*  CLOUDY    65  65 100 CALM      30.04S
WARRENTON*     CLOUDY    60  58  91 E3        30.04R FOG

$$

VAZ055>057-230600-
NORTH AND CENTRAL PIEDMONT

CITY           SKY/WX    TMP DP  RH WIND       PRES   REMARKS
FREDERICKSBRG* PTCLDY    65  65 100 CALM      30.02S
STAFFORD*      PTCLDY    63  63 100 NW3       30.07R

$$

NCZ024-NYZ072-PAZ021-071-VAZ022-071-230600-
OTHER REGIONAL OBSERVATIONS

CITY           SKY/WX    TMP DP  RH WIND       PRES   REMARKS
NEW YORK CITY  CLEAR     73  56  54 VRB6      30.02R
PHILADELPHIA   MOCLDY    72  54  53 NW8       30.01R
PITTSBURGH     PTCLDY    62  58  86 SE3       30.10F
ROANOKE        MOCLDY    70  63  78 CALM      30.09F
RICHMOND       PTCLDY    62  62 100 CALM      30.03S
RALEIGH        MOCLDY    70  66  87 CALM      30.03S

$$

ANZ530>537-230600-
MARINE OBSERVATIONS

STATION/POSITION TIME  TEMP    WIND        PRES
                       AIR SEA DIR/SP/G
                 (UTC) (F)     (DEG/KT/KT) (MB)
THOMAS PT LIGHT  0500   73 76  340/  7/  8   N/A
BALT KEY BRIDGE  0448   75     350/  7/  8 1016.1S
COVE POINT       0448   75     340/  8/  9 1016.5R
LEWISETTA        0448   70 77  290/  4/  4 1015.9R
SOLOMONS ISLAND  0448   70 76  260/  4/  5 1015.6R
PINEY POINT      0448          360/  7/  7   N/A

$$




USA.gov is the U.S. government's official web portal to all federal, state and local government web resources and services.